Date,TemperatureHighF,TemperatureAvgF,TemperatureLowF,DewpointHighF,DewpointAvgF,DewpointLowF,HumidityHigh,HumidityAvg,HumidityLow,PressureMaxIn,PressureMinIn,WindSpeedMaxMPH,WindSpeedAvgMPH,GustSpeedMaxMPH,PrecipitationSumIn
2013-9-1,92,80,75,77,73,-100,98,84,50,0.00,40.00,11,3,18,0.02
2013-9-2,94,79,74,79,74,69,99,87,45,0.00,40.00,15,2,28,0.41
2013-9-3,93,79,74,77,74,71,99,86,49,0.00,40.00,8,3,16,0.70
2013-9-4,85,81,77,78,76,75,98,88,73,0.00,40.00,8,4,15,0.02
2013-9-5,92,82,77,78,75,71,98,81,51,0.00,40.00,10,5,18,0.01
2013-9-6,94,84,77,79,75,71,97,78,49,0.00,40.00,9,4,15,0.00
2013-9-7,89,78,74,77,74,71,97,88,64,0.00,40.00,12,4,18,0.60
2013-9-8,90,79,73,76,72,-100,98,83,54,0.00,40.00,14,4,25,0.03
2013-9-9,89,81,74,77,74,70,99,81,55,0.00,40.00,11,5,20,0.03
2013-9-10,78,76,76,74,74,73,95,92,85,0.00,40.00,4,2,10,0.03
2013-9-19,89,81,76,75,74,72,95,81,57,0.00,40.00,9,6,23,0.20
2013-9-20,87,80,73,76,70,63,97,75,45,0.00,40.00,12,6,18,0.03
2013-9-21,90,81,74,75,71,67,96,76,47,0.00,40.00,8,4,17,0.00
2013-9-22,92,81,75,78,72,-100,97,77,47,0.00,40.00,10,5,18,0.00
2013-9-23,86,80,76,79,76,73,98,88,66,0.00,40.00,9,4,21,0.04
2013-9-24,89,80,74,79,75,72,96,85,63,0.00,40.00,9,5,28,0.38
2013-9-25,87,79,74,77,74,70,98,85,57,0.00,40.00,14,5,22,0.07
2013-9-26,89,79,75,79,76,74,99,90,65,0.00,40.00,13,6,29,0.47
2013-9-27,89,80,73,76,72,66,98,80,47,0.00,40.00,11,6,21,0.01
2013-9-28,87,79,73,74,71,68,98,79,54,0.00,40.00,13,6,31,0.44
2013-9-29,89,79,70,75,68,-100,98,75,48,0.00,40.00,11,5,16,0.44
2013-9-30,89,81,74,75,71,66,99,76,49,0.00,40.00,10,4,17,0.00